����,���ϕ���(m/s),���ϕ���,�ő�u�ԕ���(m/s),�ő啗��������,�C��(��),���x(%),10���Ԉړ��ώZ�J��(mm),1���Ԉړ��ώZ�J��(mm),���J��(mm),�݌v�J��(mm),����(���ώZ)(MJ/m2),����(���ώZ)(min),���n�C��(hPa),�C�ʋC��(hPa)
2024-04-08T00:00:00+09:00,1.3,�k�k��,2,�k�k��,12.8,80.4,0,0,0,0,20.31,569,1005.8,1019.8
2024-04-08T00:01:00+09:00,1.3,�k�k��,2,�k�k��,12.7,79.9,0,0,0,0,0,0,1005.8,1019.8
2024-04-08T00:02:00+09:00,1.4,�k�k��,2,�k�k��,12.7,79.9,0,0,0,0,0,0,1005.8,1019.8
2024-04-08T00:03:00+09:00,1.4,�k�k��,2,�k�k��,12.8,79.7,0,0,0,0,0,0,1005.8,1019.8
2024-04-08T00:04:00+09:00,1.4,�k�k��,2.1,�k,12.5,79.5,0,0,0,0,0,0,1005.8,1019.8
2024-04-08T00:05:00+09:00,1.3,�k�k��,2.1,�k,12.6,79.9,0,0,0,0,0,0,1005.8,1019.8
2024-04-08T00:06:00+09:00,1.2,�k,2.1,�k,12.9,80.2,0,0,0,0,0,0,1005.8,1019.8
2024-04-08T00:07:00+09:00,1.1,�k,2.1,�k,13,79.6,0,0,0,0,0,0,1005.8,1019.8
2024-04-08T00:08:00+09:00,1.1,�k,2.1,�k,13.2,79.3,0,0,0,0,0,0,1005.8,1019.8
2024-04-08T00:09:00+09:00,1,�k,2.1,�k,13,78.5,0,0,0,0,0,0,1005.8,1019.8
2024-04-08T00:10:00+09:00,0.9,�k�k��,2.1,�k,12.7,78.5,0,0,0,0,0,0,1005.8,1019.8
2024-04-08T00:11:00+09:00,0.9,�k�k��,2.1,�k,12.5,79.2,0,0,0,0,0,0,1005.8,1019.8
2024-04-08T00:12:00+09:00,0.9,�k�k��,2.1,�k,12.6,79.8,0,0,0,0,0,0,1005.7,1019.7
2024-04-08T00:13:00+09:00,0.9,�k��,2.1,�k,12.5,80,0,0,0,0,0,0,1005.8,1019.8
2024-04-08T00:14:00+09:00,0.8,�k��,1.5,�k��,12.5,80.4,0,0,0,0,0,0,1005.8,1019.8
2024-04-08T00:15:00+09:00,0.8,�k��,1.5,�k��,12.4,80.5,0,0,0,0,0,0,1005.8,1019.8
2024-04-08T00:16:00+09:00,0.9,�k��,1.5,�k��,12.5,80.8,0,0,0,0,0,0,1005.7,1019.7
2024-04-08T00:17:00+09:00,0.9,�k��,1.5,�k��,12.4,80.9,0,0,0,0,0,0,1005.7,1019.7
2024-04-08T00:18:00+09:00,0.8,�k��,1.5,�k��,12.3,81,0,0,0,0,0,0,1005.7,1019.7
2024-04-08T00:19:00+09:00,0.8,�k��,1.5,�k��,12.3,81.4,0,0,0,0,0,0,1005.7,1019.7
2024-04-08T00:20:00+09:00,0.8,�k��,1.5,�k��,12.4,81.5,0,0,0,0,0,0,1005.7,1019.7
2024-04-08T00:21:00+09:00,0.8,�k��,1.5,�k��,12.4,81.7,0,0,0,0,0,0,1005.7,1019.7
2024-04-08T00:22:00+09:00,0.7,�k��,1.5,�k��,12.3,81.5,0,0,0,0,0,0,1005.7,1019.7
2024-04-08T00:23:00+09:00,0.7,�k�k��,1.4,�k��,12.4,81.8,0,0,0,0,0,0,1005.6,1019.6
2024-04-08T00:24:00+09:00,0.7,�k��,1.4,�k��,12.4,81.8,0,0,0,0,0,0,1005.7,1019.7
2024-04-08T00:25:00+09:00,0.6,�k�k��,1.4,�k��,12.3,81.9,0,0,0,0,0,0,1005.7,1019.7
2024-04-08T00:26:00+09:00,0.6,�k��,1.3,�k�k��,12.5,82.1,0,0,0,0,0,0,1005.6,1019.6
2024-04-08T00:27:00+09:00,0.6,�k��,1.3,�k�k��,12.3,81.8,0,0,0,0,0,0,1005.6,1019.6
2024-04-08T00:28:00+09:00,0.6,�k��,1.3,�k�k��,12.3,82,0,0,0,0,0,0,1005.5,1019.5
2024-04-08T00:29:00+09:00,0.6,�k��,1.1,�k��,12.6,82.3,0,0,0,0,0,0,1005.5,1019.5
2024-04-08T00:30:00+09:00,0.7,�k��,1.3,�k��,12.6,81.8,0,0,0,0,0,0,1005.5,1019.5
2024-04-08T00:31:00+09:00,0.7,�k��,1.6,���k��,12.6,81.5,0,0,0,0,0,0,1005.5,1019.5
2024-04-08T00:32:00+09:00,0.8,�k��,1.6,���k��,12.5,81.4,0,0,0,0,0,0,1005.5,1019.5
2024-04-08T00:33:00+09:00,0.9,�k��,1.6,���k��,12.3,81.4,0,0,0,0,0,0,1005.5,1019.5
2024-04-08T00:34:00+09:00,0.9,�k��,1.6,���k��,12.2,81.8,0,0,0,0,0,0,1005.5,1019.5
2024-04-08T00:35:00+09:00,1,�k��,1.8,�k�k��,12.2,82.4,0,0,0,0,0,0,1005.5,1019.5
2024-04-08T00:36:00+09:00,1.1,�k��,2.1,���k��,12.2,82.4,0,0,0,0,0,0,1005.6,1019.6
2024-04-08T00:37:00+09:00,1.1,�k��,2.1,���k��,12.3,82.7,0,0,0,0,0,0,1005.5,1019.5
2024-04-08T00:38:00+09:00,1.2,�k��,2.1,���k��,12.3,82.4,0,0,0,0,0,0,1005.6,1019.6
2024-04-08T00:39:00+09:00,1.2,�k��,2.1,���k��,12.2,82.3,0,0,0,0,0,0,1005.5,1019.5
2024-04-08T00:40:00+09:00,1.2,�k��,2.1,���k��,12.4,82.5,0,0,0,0,0,0,1005.5,1019.5
2024-04-08T00:41:00+09:00,1.2,�k��,2.1,���k��,12.3,82,0,0,0,0,0,0,1005.5,1019.5
2024-04-08T00:42:00+09:00,1.2,�k��,2.1,���k��,12.3,82.1,0,0,0,0,0,0,1005.5,1019.5
2024-04-08T00:43:00+09:00,1.2,�k��,2.1,���k��,12.2,82.1,0,0,0,0,0,0,1005.6,1019.6
2024-04-08T00:44:00+09:00,1.1,�k��,2.1,���k��,12.2,82,0,0,0,0,0,0,1005.5,1019.5
2024-04-08T00:45:00+09:00,1.1,�k��,2.1,���k��,12.1,82.2,0,0,0,0,0,0,1005.5,1019.5
2024-04-08T00:46:00+09:00,1,�k��,1.8,���k��,12.2,82.5,0,0,0,0,0,0,1005.5,1019.5
2024-04-08T00:47:00+09:00,1,�k��,1.7,�k��,12.4,82.6,0,0,0,0,0,0,1005.5,1019.5
2024-04-08T00:48:00+09:00,1,�k��,1.6,�k��,12.2,82.1,0,0,0,0,0,0,1005.5,1019.5
2024-04-08T00:49:00+09:00,0.9,�k�k��,1.6,�k��,12.1,82,0,0,0,0,0,0,1005.5,1019.5
2024-04-08T00:50:00+09:00,0.8,�k�k��,1.5,�k��,12,82.4,0,0,0,0,0,0,1005.4,1019.4
2024-04-08T00:51:00+09:00,0.7,�k�k��,1.4,�k��,12.1,82.8,0,0,0,0,0,0,1005.3,1019.3
2024-04-08T00:52:00+09:00,0.6,�k�k��,1.4,�k��,12.2,82.8,0,0,0,0,0,0,1005.4,1019.4
2024-04-08T00:53:00+09:00,0.6,�k�k��,1.4,�k��,12.1,82.5,0,0,0,0,0,0,1005.4,1019.4
2024-04-08T00:54:00+09:00,0.6,�k�k��,1.4,�k��,12.2,82.9,0,0,0,0,0,0,1005.4,1019.4
2024-04-08T00:55:00+09:00,0.7,�k�k��,1.4,�k��,12.3,82.9,0,0,0,0,0,0,1005.4,1019.4
2024-04-08T00:56:00+09:00,0.7,�k�k��,1.4,�k��,12.3,82.7,0,0,0,0,0,0,1005.4,1019.4
2024-04-08T00:57:00+09:00,0.7,�k,1.4,�k,12.3,82.4,0,0,0,0,0,0,1005.4,1019.4
2024-04-08T00:58:00+09:00,0.7,�k,1.4,�k,12.4,82.1,0,0,0,0,0,0,1005.4,1019.4
2024-04-08T00:59:00+09:00,0.8,�k,1.4,�k,12.4,81.8,0,0,0,0,0,0,1005.4,1019.4
2024-04-08T01:00:00+09:00,0.8,�k,1.4,�k,12.4,81.6,0,0,0,0,0,0,1005.4,1019.4
2024-04-08T01:01:00+09:00,0.9,�k,1.5,�k�k��,12.4,81.4,0,0,0,0,0,0,1005.4,1019.4
2024-04-08T01:02:00+09:00,0.9,�k,1.5,�k�k��,12.4,81.4,0,0,0,0,0,0,1005.4,1019.4
2024-04-08T01:03:00+09:00,0.9,�k,1.5,�k�k��,12.4,81.3,0,0,0,0,0,0,1005.4,1019.4
2024-04-08T01:04:00+09:00,0.8,�k,1.5,�k�k��,12.4,81.4,0,0,0,0,0,0,1005.4,1019.4
2024-04-08T01:05:00+09:00,0.7,�k,1.5,�k�k��,12.2,81.2,0,0,0,0,0,0,1005.4,1019.4
2024-04-08T01:06:00+09:00,0.7,�k,1.5,�k�k��,12.3,81.7,0,0,0,0,0,0,1005.3,1019.3
2024-04-08T01:07:00+09:00,0.7,�k,1.5,�k�k��,12.3,81.6,0,0,0,0,0,0,1005.4,1019.4
2024-04-08T01:08:00+09:00,0.6,�k,1.5,�k�k��,12.4,81.8,0,0,0,0,0,0,1005.4,1019.4
2024-04-08T01:09:00+09:00,0.6,�k,1.5,�k�k��,12.4,81.6,0,0,0,0,0,0,1005.4,1019.4
2024-04-08T01:10:00+09:00,0.6,�k,1.5,�k�k��,12.3,81.2,0,0,0,0,0,0,1005.4,1019.4
2024-04-08T01:11:00+09:00,0.6,�k,1.3,�k,12.3,81.6,0,0,0,0,0,0,1005.4,1019.4
2024-04-08T01:12:00+09:00,0.7,�k,1.3,�k,12.2,81.6,0,0,0,0,0,0,1005.4,1019.4
2024-04-08T01:13:00+09:00,0.7,�k,1.3,�k,12.1,81.8,0,0,0,0,0,0,1005.4,1019.4
2024-04-08T01:14:00+09:00,0.8,�k�k��,1.4,�k�k��,12.1,82.2,0,0,0,0,0,0,1005.4,1019.4
2024-04-08T01:15:00+09:00,0.9,�k�k��,1.4,�k�k��,12.1,82.5,0,0,0,0,0,0,1005.4,1019.4
2024-04-08T01:16:00+09:00,1,�k�k��,1.4,�k�k��,12.1,82.5,0,0,0,0,0,0,1005.4,1019.4
2024-04-08T01:17:00+09:00,0.9,�k�k��,1.4,�k�k��,12.1,82.7,0,0,0,0,0,0,1005.4,1019.4
2024-04-08T01:18:00+09:00,0.9,�k�k��,1.4,�k�k��,12.1,82.9,0,0,0,0,0,0,1005.4,1019.4
2024-04-08T01:19:00+09:00,0.9,�k�k��,1.4,�k�k��,12.1,82.9,0,0,0,0,0,0,1005.4,1019.4
2024-04-08T01:20:00+09:00,0.9,�k,1.4,�k�k��,12.1,83.1,0,0,0,0,0,0,1005.4,1019.4
2024-04-08T01:21:00+09:00,0.8,�k,1.4,�k�k��,12.2,82.9,0,0,0,0,0,0,1005.4,1019.4
2024-04-08T01:22:00+09:00,0.8,�k,1.4,�k�k��,12.2,82.9,0,0,0,0,0,0,1005.3,1019.3
2024-04-08T01:23:00+09:00,0.7,�k,1.4,�k�k��,12.2,82.7,0,0,0,0,0,0,1005.3,1019.3
2024-04-08T01:24:00+09:00,0.6,�k,1.2,�k�k��,12.1,82.6,0,0,0,0,0,0,1005.3,1019.3
2024-04-08T01:25:00+09:00,0.5,�k,1.2,�k�k��,12.1,82.8,0,0,0,0,0,0,1005.3,1019.3
2024-04-08T01:26:00+09:00,0.5,�k,1.1,�k,11.9,82.8,0,0,0,0,0,0,1005.2,1019.2
2024-04-08T01:27:00+09:00,0.5,�k�k��,1.1,�k,12,83.3,0,0,0,0,0,0,1005.3,1019.3
2024-04-08T01:28:00+09:00,0.5,�k�k��,1.1,�k,11.9,83,0,0,0,0,0,0,1005.2,1019.2
2024-04-08T01:29:00+09:00,0.5,�k�k��,1,�k,12,83.1,0,0,0,0,0,0,1005.2,1019.2
2024-04-08T01:30:00+09:00,0.5,�k�k��,1.2,�k��,11.9,82.9,0,0,0,0,0,0,1005.2,1019.2
2024-04-08T01:31:00+09:00,0.5,�k�k��,1.2,�k��,12,83.3,0,0,0,0,0,0,1005.3,1019.3
2024-04-08T01:32:00+09:00,0.5,�k��,1.2,�k��,11.9,83.3,0,0,0,0,0,0,1005.3,1019.3
2024-04-08T01:33:00+09:00,0.6,�k��,1.2,�k��,12,83.4,0,0,0,0,0,0,1005.3,1019.3
2024-04-08T01:34:00+09:00,0.6,�k��,1.2,�k��,11.8,83.4,0,0,0,0,0,0,1005.3,1019.3
2024-04-08T01:35:00+09:00,0.7,���k��,1.2,�k��,11.8,84,0,0,0,0,0,0,1005.2,1019.2
2024-04-08T01:36:00+09:00,0.7,���k��,1.2,�k��,12,84.5,0,0,0,0,0,0,1005.2,1019.2
2024-04-08T01:37:00+09:00,0.8,���k��,1.3,���k��,12.1,84.3,0,0,0,0,0,0,1005.2,1019.2
2024-04-08T01:38:00+09:00,0.9,���k��,1.4,���k��,11.9,83.8,0,0,0,0,0,0,1005.2,1019.2
2024-04-08T01:39:00+09:00,0.9,���k��,1.4,���k��,11.9,84.2,0,0,0,0,0,0,1005.2,1019.2
2024-04-08T01:40:00+09:00,0.9,���k��,1.4,���k��,12.1,84.5,0,0,0,0,0,0,1005.1,1019.1
2024-04-08T01:41:00+09:00,1,���k��,1.4,���k��,12.2,84.3,0,0,0,0,0,0,1005.1,1019.1
2024-04-08T01:42:00+09:00,1,���k��,1.4,���k��,12.1,84,0,0,0,0,0,0,1005.1,1019.1
2024-04-08T01:43:00+09:00,1,���k��,1.4,���k��,11.9,84.3,0,0,0,0,0,0,1005.2,1019.2
2024-04-08T01:44:00+09:00,1,���k��,1.4,���k��,11.6,84.2,0,0,0,0,0,0,1005.1,1019.2
2024-04-08T01:45:00+09:00,1,���k��,1.4,���k��,11.6,85.1,0,0,0,0,0,0,1005.1,1019.2
2024-04-08T01:46:00+09:00,1,���k��,1.4,���k��,11.7,85.7,0,0,0,0,0,0,1005,1019.1
2024-04-08T01:47:00+09:00,1,���k��,1.4,���k��,11.9,85.9,0,0,0,0,0,0,1005,1019
2024-04-08T01:48:00+09:00,1,���k��,1.3,���k��,11.9,85.4,0,0,0,0,0,0,1005,1019
2024-04-08T01:49:00+09:00,1,���k��,1.3,���k��,11.8,85,0,0,0,0,0,0,1005.1,1019.1
2024-04-08T01:50:00+09:00,0.9,���k��,1.3,���k��,11.9,85.2,0,0,0,0,0,0,1005.1,1019.1
2024-04-08T01:51:00+09:00,0.9,���k��,1.3,���k��,11.9,85,0,0,0,0,0,0,1005,1019
2024-04-08T01:52:00+09:00,0.8,���k��,1.3,���k��,12.1,85,0,0,0,0,0,0,1005,1019
2024-04-08T01:53:00+09:00,0.8,���k��,1.3,���k��,12.3,84.6,0,0,0,0,0,0,1005,1019
2024-04-08T01:54:00+09:00,0.7,���k��,1.3,���k��,12.2,83.7,0,0,0,0,0,0,1005,1019
2024-04-08T01:55:00+09:00,0.7,�k��,1.3,���k��,12.1,83.4,0,0,0,0,0,0,1005,1019
2024-04-08T01:56:00+09:00,0.6,�k��,1.1,��,12.2,83.4,0,0,0,0,0,0,1005,1019
2024-04-08T01:57:00+09:00,0.6,�k��,1.1,��,12.2,83.5,0,0,0,0,0,0,1005,1019
2024-04-08T01:58:00+09:00,0.6,�k��,1,���k��,12.4,83.4,0,0,0,0,0,0,1004.9,1018.9
2024-04-08T01:59:00+09:00,0.6,�k��,1,���k��,12.1,83,0,0,0,0,0,0,1004.9,1018.9
2024-04-08T02:00:00+09:00,0.6,�k��,1.2,���k��,12.1,83.4,0,0,0,0,0,0,1004.9,1018.9
2024-04-08T02:01:00+09:00,0.7,�k��,1.3,�k��,12.1,83.6,0,0,0,0,0,0,1004.9,1018.9
2024-04-08T02:02:00+09:00,0.7,�k��,1.4,���k��,12.2,83.9,0,0,0,0,0,0,1004.9,1018.9
2024-04-08T02:03:00+09:00,0.8,�k��,1.4,���k��,12.1,83.6,0,0,0,0,0,0,1004.9,1018.9
2024-04-08T02:04:00+09:00,0.9,�k��,1.4,���k��,12.1,83.8,0,0,0,0,0,0,1004.8,1018.8
2024-04-08T02:05:00+09:00,0.9,�k��,1.4,���k��,11.9,83.6,0,0,0,0,0,0,1004.8,1018.8
2024-04-08T02:06:00+09:00,1,�k��,1.4,���k��,12,84.2,0,0,0,0,0,0,1004.8,1018.8
2024-04-08T02:07:00+09:00,1,�k��,1.4,���k��,12.2,84.2,0,0,0,0,0,0,1004.8,1018.8
2024-04-08T02:08:00+09:00,1,�k��,1.4,���k��,12,83.5,0,0,0,0,0,0,1004.9,1018.9
2024-04-08T02:09:00+09:00,1,�k��,1.4,���k��,12,83.6,0,0,0,0,0,0,1004.9,1018.9
2024-04-08T02:10:00+09:00,1,�k��,1.4,���k��,12.1,83.9,0,0,0,0,0,0,1004.8,1018.8
2024-04-08T02:11:00+09:00,0.9,�k��,1.4,���k��,12.1,83.8,0,0,0,0,0,0,1004.7,1018.7
2024-04-08T02:12:00+09:00,0.8,�k�k��,1.4,�k��,12.1,83.2,0,0,0,0,0,0,1004.7,1018.7
2024-04-08T02:13:00+09:00,0.8,�k�k��,1.4,�k��,12,83.1,0,0,0,0,0,0,1004.7,1018.7
2024-04-08T02:14:00+09:00,0.7,�k�k��,1.4,�k��,12,82.8,0,0,0,0,0,0,1004.7,1018.7
2024-04-08T02:15:00+09:00,0.6,�k�k��,1.4,�k�k��,11.9,82.6,0,0,0,0,0,0,1004.7,1018.7
2024-04-08T02:16:00+09:00,0.6,�k�k��,1.4,�k�k��,12,82.8,0,0,0,0,0,0,1004.7,1018.7
2024-04-08T02:17:00+09:00,0.6,�k�k��,1.4,�k�k��,12,82.8,0,0,0,0,0,0,1004.7,1018.7
2024-04-08T02:18:00+09:00,0.6,�k�k��,1.4,�k�k��,12,82.8,0,0,0,0,0,0,1004.7,1018.7
2024-04-08T02:19:00+09:00,0.6,�k�k��,1.4,�k�k��,11.8,83,0,0,0,0,0,0,1004.8,1018.8
2024-04-08T02:20:00+09:00,0.6,�k�k��,1.4,�k�k��,11.8,83.7,0,0,0,0,0,0,1004.7,1018.7
2024-04-08T02:21:00+09:00,0.7,�k�k��,1.6,���k��,11.8,84.3,0,0,0,0,0,0,1004.7,1018.7
2024-04-08T02:22:00+09:00,0.8,�k��,1.6,���k��,11.6,84.6,0,0,0,0,0,0,1004.7,1018.8
2024-04-08T02:23:00+09:00,0.9,�k��,1.6,���k��,11.7,85.2,0,0,0,0,0,0,1004.7,1018.7
2024-04-08T02:24:00+09:00,0.9,�k��,1.6,���k��,11.7,85.5,0,0,0,0,0,0,1004.7,1018.7
2024-04-08T02:25:00+09:00,1,�k��,1.6,���k��,11.7,85.2,0,0,0,0,0,0,1004.7,1018.7
2024-04-08T02:26:00+09:00,1,�k��,1.6,���k��,11.7,85.3,0,0,0,0,0,0,1004.8,1018.8
2024-04-08T02:27:00+09:00,1,�k��,1.6,���k��,11.8,85.5,0,0,0,0,0,0,1004.7,1018.7
2024-04-08T02:28:00+09:00,1,�k��,1.6,���k��,11.8,85.5,0,0,0,0,0,0,1004.7,1018.7
2024-04-08T02:29:00+09:00,1,�k��,1.6,���k��,11.7,85,0,0,0,0,0,0,1004.7,1018.7
2024-04-08T02:30:00+09:00,1,�k�k��,1.6,���k��,11.8,85.1,0,0,0,0,0,0,1004.7,1018.7
2024-04-08T02:31:00+09:00,1,�k�k��,1.5,�k�k��,11.7,84.9,0,0,0,0,0,0,1004.7,1018.7
2024-04-08T02:32:00+09:00,1,�k�k��,1.5,�k�k��,11.8,85,0,0,0,0,0,0,1004.7,1018.7
2024-04-08T02:33:00+09:00,1,�k,1.5,�k�k��,11.7,84.6,0,0,0,0,0,0,1004.7,1018.7
2024-04-08T02:34:00+09:00,0.9,�k,1.5,�k�k��,11.7,84.7,0,0,0,0,0,0,1004.7,1018.7
2024-04-08T02:35:00+09:00,0.9,�k,1.5,�k�k��,11.6,84.8,0,0,0,0,0,0,1004.7,1018.8
2024-04-08T02:36:00+09:00,1,�k,1.5,�k�k��,11.6,85.1,0,0,0,0,0,0,1004.7,1018.8
2024-04-08T02:37:00+09:00,1,�k�k��,1.5,�k�k��,11.6,85.4,0,0,0,0,0,0,1004.7,1018.8
2024-04-08T02:38:00+09:00,1,�k�k��,1.5,�k�k��,11.6,85.3,0,0,0,0,0,0,1004.7,1018.8
2024-04-08T02:39:00+09:00,0.9,�k,1.5,�k�k��,11.8,85.5,0,0,0,0,0,0,1004.7,1018.7
2024-04-08T02:40:00+09:00,0.9,�k,1.5,�k�k��,11.6,84.9,0,0,0,0,0,0,1004.7,1018.8
2024-04-08T02:41:00+09:00,0.8,�k,1.5,�k�k��,11.7,85.1,0,0,0,0,0,0,1004.6,1018.6
2024-04-08T02:42:00+09:00,0.8,�k,1.5,�k�k��,11.7,85.3,0,0,0,0,0,0,1004.6,1018.6
2024-04-08T02:43:00+09:00,0.7,�k,1.5,�k�k��,11.7,85,0,0,0,0,0,0,1004.6,1018.6
2024-04-08T02:44:00+09:00,0.7,�k,1.5,�k�k��,11.7,85,0,0,0,0,0,0,1004.6,1018.6
2024-04-08T02:45:00+09:00,0.7,�k,1.4,�k�k��,11.7,84.9,0,0,0,0,0,0,1004.6,1018.6
2024-04-08T02:46:00+09:00,0.7,�k,1.4,�k�k��,11.8,84.8,0,0,0,0,0,0,1004.5,1018.5
2024-04-08T02:47:00+09:00,0.7,�k,1.4,�k�k��,12,84.7,0,0,0,0,0,0,1004.6,1018.6
2024-04-08T02:48:00+09:00,0.7,�k,1.4,�k�k��,11.6,83.8,0,0,0,0,0,0,1004.6,1018.6
2024-04-08T02:49:00+09:00,0.7,�k,1.4,�k�k��,11.7,84.5,0,0,0,0,0,0,1004.6,1018.6
2024-04-08T02:50:00+09:00,0.8,�k,1.4,�k�k��,11.4,84.3,0,0,0,0,0,0,1004.6,1018.7
2024-04-08T02:51:00+09:00,0.8,�k,1.4,�k�k��,11.6,85.2,0,0,0,0,0,0,1004.5,1018.5
2024-04-08T02:52:00+09:00,0.8,�k,1.4,�k�k��,11.5,85.1,0,0,0,0,0,0,1004.5,1018.6
2024-04-08T02:53:00+09:00,0.8,�k,1.4,�k�k��,11.6,85.4,0,0,0,0,0,0,1004.4,1018.4
2024-04-08T02:54:00+09:00,0.8,�k,1.7,�k,11.7,85.4,0,0,0,0,0,0,1004.5,1018.5
2024-04-08T02:55:00+09:00,0.8,�k,1.8,�k,11.5,85,0,0,0,0,0,0,1004.5,1018.6
2024-04-08T02:56:00+09:00,0.9,�k�k��,1.8,�k,11.5,85,0,0,0,0,0,0,1004.4,1018.5
2024-04-08T02:57:00+09:00,0.9,�k,1.8,�k,11.6,85.3,0,0,0,0,0,0,1004.4,1018.4
2024-04-08T02:58:00+09:00,0.9,�k,1.8,�k,11.5,85.1,0,0,0,0,0,0,1004.5,1018.6
2024-04-08T02:59:00+09:00,0.8,�k,1.8,�k,11.4,85.2,0,0,0,0,0,0,1004.6,1018.7
2024-04-08T03:00:00+09:00,0.8,�k,1.8,�k,11.4,85.5,0,0,0,0,0,0,1004.6,1018.7
2024-04-08T03:01:00+09:00,0.8,�k,1.8,�k,11.4,85.6,0,0,0,0,0,0,1004.6,1018.7
2024-04-08T03:02:00+09:00,0.8,�k,1.8,�k,11.5,85.8,0,0,0,0,0,0,1004.6,1018.7
2024-04-08T03:03:00+09:00,0.8,�k,1.8,�k,11.7,85.9,0,0,0,0,0,0,1004.6,1018.6
2024-04-08T03:04:00+09:00,0.8,�k,1.8,�k,11.7,85.2,0,0,0,0,0,0,1004.5,1018.5
2024-04-08T03:05:00+09:00,0.8,�k,1.7,�k,11.6,84.9,0,0,0,0,0,0,1004.6,1018.6
2024-04-08T03:06:00+09:00,0.8,�k,1.7,�k,11.6,84.8,0,0,0,0,0,0,1004.5,1018.5
2024-04-08T03:07:00+09:00,0.9,�k,1.7,�k,11.6,85.1,0,0,0,0,0,0,1004.5,1018.5
2024-04-08T03:08:00+09:00,0.9,�k,1.7,�k,11.8,85.1,0,0,0,0,0,0,1004.5,1018.5
2024-04-08T03:09:00+09:00,0.9,�k�k��,1.7,�k,11.6,84.7,0,0,0,0,0,0,1004.5,1018.5
2024-04-08T03:10:00+09:00,1,�k�k��,1.8,�k�k��,11.8,85,0,0,0,0,0,0,1004.5,1018.5
2024-04-08T03:11:00+09:00,1.1,�k�k��,1.8,�k�k��,11.8,84.8,0,0,0,0,0,0,1004.5,1018.5
2024-04-08T03:12:00+09:00,1.1,�k�k��,1.8,�k�k��,11.7,84.5,0,0,0,0,0,0,1004.5,1018.5
2024-04-08T03:13:00+09:00,1.1,�k�k��,1.8,�k�k��,11.6,84.7,0,0,0,0,0,0,1004.4,1018.4
2024-04-08T03:14:00+09:00,1.1,�k�k��,1.8,�k�k��,11.7,85.1,0,0,0,0,0,0,1004.4,1018.4
2024-04-08T03:15:00+09:00,1.1,�k�k��,1.8,�k�k��,11.7,85.1,0,0,0,0,0,0,1004.4,1018.4
2024-04-08T03:16:00+09:00,1.1,�k,1.8,�k�k��,11.7,84.7,0,0,0,0,0,0,1004.4,1018.4
2024-04-08T03:17:00+09:00,1,�k,1.8,�k�k��,11.5,84.5,0,0,0,0,0,0,1004.4,1018.5
2024-04-08T03:18:00+09:00,1,�k,1.8,�k�k��,11.4,85,0,0,0,0,0,0,1004.4,1018.5
2024-04-08T03:19:00+09:00,1,�k,1.8,�k�k��,11.5,85.5,0,0,0,0,0,0,1004.4,1018.5
2024-04-08T03:20:00+09:00,0.9,�k�k��,1.8,�k,11.6,85.5,0,0,0,0,0,0,1004.4,1018.4
2024-04-08T03:21:00+09:00,0.9,�k�k��,1.8,�k,11.5,85.1,0,0,0,0,0,0,1004.4,1018.5
2024-04-08T03:22:00+09:00,0.9,�k�k��,1.8,�k,11.6,85.5,0,0,0,0,0,0,1004.4,1018.4
2024-04-08T03:23:00+09:00,0.8,�k�k��,1.8,�k,11.6,85.6,0,0,0,0,0,0,1004.4,1018.4
2024-04-08T03:24:00+09:00,0.7,�k�k��,1.7,�k�k��,11.5,85.5,0,0,0,0,0,0,1004.4,1018.5
2024-04-08T03:25:00+09:00,0.8,�k�k��,1.7,�k�k��,11.6,85.4,0,0,0,0,0,0,1004.4,1018.4
2024-04-08T03:26:00+09:00,0.8,�k�k��,1.8,�k�k��,11.6,85.2,0,0,0,0,0,0,1004.5,1018.5
2024-04-08T03:27:00+09:00,0.7,�k�k��,1.8,�k�k��,11.5,84.9,0,0,0,0,0,0,1004.5,1018.6
2024-04-08T03:28:00+09:00,0.7,�k�k��,1.8,�k�k��,11.4,85,0,0,0,0,0,0,1004.5,1018.6
2024-04-08T03:29:00+09:00,0.7,�k�k��,1.8,�k�k��,11.5,85.4,0,0,0,0,0,0,1004.4,1018.5
2024-04-08T03:30:00+09:00,0.8,�k�k��,1.8,�k�k��,11.5,85.5,0,0,0,0,0,0,1004.4,1018.5
2024-04-08T03:31:00+09:00,0.8,�k�k��,1.8,�k�k��,11.7,85.5,0,0,0,0,0,0,1004.4,1018.4
2024-04-08T03:32:00+09:00,0.8,�k�k��,1.8,�k�k��,11.6,84.9,0,0,0,0,0,0,1004.5,1018.5
2024-04-08T03:33:00+09:00,0.8,�k�k��,1.8,�k�k��,11.6,84.9,0,0,0,0,0,0,1004.4,1018.4
2024-04-08T03:34:00+09:00,0.8,�k�k��,1.8,�k�k��,11.5,84.9,0,0,0,0,0,0,1004.4,1018.5
2024-04-08T03:35:00+09:00,0.8,�k�k��,1.8,�k�k��,11.6,85.3,0,0,0,0,0,0,1004.4,1018.4
2024-04-08T03:36:00+09:00,0.8,�k�k��,1.8,���k��,11.8,85.3,0,0,0,0,0,0,1004.4,1018.4
2024-04-08T03:37:00+09:00,0.8,�k�k��,1.8,���k��,12,84.8,0,0,0,0,0,0,1004.5,1018.5
2024-04-08T03:38:00+09:00,0.8,�k�k��,1.8,���k��,11.9,83.9,0,0,0,0,0,0,1004.5,1018.5
2024-04-08T03:39:00+09:00,0.7,�k�k��,1.6,�k��,11.7,83.6,0,0,0,0,0,0,1004.5,1018.5
2024-04-08T03:40:00+09:00,0.7,�k�k��,1.6,�k��,11.8,83.9,0,0,0,0,0,0,1004.4,1018.4
2024-04-08T03:41:00+09:00,0.7,�k�k��,1.6,�k��,11.8,84,0,0,0,0,0,0,1004.5,1018.5
2024-04-08T03:42:00+09:00,0.7,�k�k��,1.6,�k��,11.6,83.5,0,0,0,0,0,0,1004.5,1018.5
2024-04-08T03:43:00+09:00,0.6,�k�k��,1.4,�k��,11.6,83.8,0,0,0,0,0,0,1004.6,1018.6
2024-04-08T03:44:00+09:00,0.6,�k�k��,1.4,�k��,11.5,84.2,0,0,0,0,0,0,1004.6,1018.7
2024-04-08T03:45:00+09:00,0.5,�k��,1.4,�k��,11.5,84.6,0,0,0,0,0,0,1004.7,1018.8
2024-04-08T03:46:00+09:00,0.5,�k��,1.4,�k��,11.4,84.9,0,0,0,0,0,0,1004.7,1018.8
2024-04-08T03:47:00+09:00,0.4,�k��,1.3,�k,11.5,85,0,0,0,0,0,0,1004.7,1018.8
2024-04-08T03:48:00+09:00,0.5,�k��,1.3,�k,11.6,85.3,0,0,0,0,0,0,1004.7,1018.8
2024-04-08T03:49:00+09:00,0.5,�k��,1.2,�k��,11.7,85.4,0,0,0,0,0,0,1004.7,1018.7
2024-04-08T03:50:00+09:00,0.4,�k��,1.2,�k��,11.7,84.7,0,0,0,0,0,0,1004.7,1018.7
2024-04-08T03:51:00+09:00,0.4,�k��,1.2,�k��,11.6,84.4,0,0,0,0,0,0,1004.7,1018.8
2024-04-08T03:52:00+09:00,0.4,�k��,0.8,��,11.6,84.6,0,0,0,0,0,0,1004.7,1018.8
2024-04-08T03:53:00+09:00,0.4,�k��,0.8,��,11.5,84.4,0,0,0,0,0,0,1004.6,1018.7
2024-04-08T03:54:00+09:00,0.4,�k�k��,0.8,��,11.5,84.7,0,0,0,0,0,0,1004.7,1018.8
2024-04-08T03:55:00+09:00,0.3,�k�k��,0.8,��,11.4,84.8,0,0,0,0,0,0,1004.7,1018.8
2024-04-08T03:56:00+09:00,0.3,�k,0.8,��,11.7,85.1,0,0,0,0,0,0,1004.7,1018.7
2024-04-08T03:57:00+09:00,0.2,�É�,0.7,�k�k��,11.7,84.7,0,0,0,0,0,0,1004.7,1018.7
2024-04-08T03:58:00+09:00,0.2,�É�,0.7,�k�k��,11.6,84.4,0,0,0,0,0,0,1004.6,1018.6
2024-04-08T03:59:00+09:00,0.2,�É�,0.7,�k��,11.6,84.5,0,0,0,0,0,0,1004.7,1018.8
2024-04-08T04:00:00+09:00,0.3,�k�k��,1,�k�k��,11.7,84.4,0,0,0,0,0,0,1004.7,1018.7
2024-04-08T04:01:00+09:00,0.3,�k�k��,1,�k�k��,11.7,84.3,0,0,0,0,0,0,1004.7,1018.7
2024-04-08T04:02:00+09:00,0.3,�k�k��,1,�k�k��,11.8,84.4,0,0,0,0,0,0,1004.7,1018.7
2024-04-08T04:03:00+09:00,0.3,�k�k��,1,�k�k��,11.7,83.9,0,0,0,0,0,0,1004.7,1018.7
2024-04-08T04:04:00+09:00,0.3,�k�k��,1,�k�k��,11.6,83.9,0,0,0,0,0,0,1004.7,1018.8
2024-04-08T04:05:00+09:00,0.4,�k�k��,1,�k�k��,11.6,84.2,0,0,0,0,0,0,1004.7,1018.8
2024-04-08T04:06:00+09:00,0.4,�k,1,�k�k��,11.6,84.5,0,0,0,0,0,0,1004.7,1018.8
2024-04-08T04:07:00+09:00,0.4,�k,1,�k�k��,11.8,84.6,0,0,0,0,0,0,1004.7,1018.7
2024-04-08T04:08:00+09:00,0.4,�k,1,�k�k��,11.7,84.3,0,0,0,0,0,0,1004.7,1018.7
2024-04-08T04:09:00+09:00,0.4,�k�k��,1,�k�k��,11.6,84.1,0,0,0,0,0,0,1004.7,1018.8
2024-04-08T04:10:00+09:00,0.3,�k�k��,1,�k�k��,11.6,84.4,0,0,0,0,0,0,1004.7,1018.8
2024-04-08T04:11:00+09:00,0.3,�k�k��,0.8,�k��,11.5,84.5,0,0,0,0,0,0,1004.6,1018.7
2024-04-08T04:12:00+09:00,0.3,�k�k��,0.8,�k��,11.7,84.8,0,0,0,0,0,0,1004.7,1018.7
2024-04-08T04:13:00+09:00,0.3,�k�k��,0.8,�k��,11.5,84.2,0,0,0,0,0,0,1004.6,1018.7
2024-04-08T04:14:00+09:00,0.3,�k�k��,0.8,�k��,11.5,85,0,0,0,0,0,0,1004.6,1018.7
2024-04-08T04:15:00+09:00,0.3,�k�k��,0.8,�k��,11.6,85.2,0,0,0,0,0,0,1004.6,1018.6
2024-04-08T04:16:00+09:00,0.2,�É�,0.8,�k��,11.5,85.1,0,0,0,0,0,0,1004.6,1018.7
2024-04-08T04:17:00+09:00,0.2,�É�,0.7,�k��,11.5,85.2,0,0,0,0,0,0,1004.7,1018.8
2024-04-08T04:18:00+09:00,0.2,�É�,0.7,�k��,11.5,85.4,0,0,0,0,0,0,1004.7,1018.8
2024-04-08T04:19:00+09:00,0.2,�É�,0.5,�k,11.4,85.6,0,0,0,0,0,0,1004.7,1018.8
2024-04-08T04:20:00+09:00,0.2,�É�,0.5,�k,11.5,85.7,0,0,0,0,0,0,1004.7,1018.8
2024-04-08T04:21:00+09:00,0.2,�É�,0.5,�k,11.6,85.8,0,0,0,0,0,0,1004.7,1018.8
2024-04-08T04:22:00+09:00,0.2,�É�,0.5,�k,11.6,85.5,0,0,0,0,0,0,1004.8,1018.9
2024-04-08T04:23:00+09:00,0.2,�É�,0.5,�k,11.7,85.2,0,0,0,0,0,0,1004.8,1018.8
2024-04-08T04:24:00+09:00,0.3,�k��,1.1,���k��,11.7,85,0,0,0,0,0,0,1004.8,1018.8
2024-04-08T04:25:00+09:00,0.4,�k��,1.3,���k��,11.7,84.8,0,0,0,0,0,0,1004.8,1018.8
2024-04-08T04:26:00+09:00,0.5,�k��,1.3,���k��,11.6,84.9,0,0,0,0,0,0,1004.8,1018.9
2024-04-08T04:27:00+09:00,0.6,�k��,1.4,��,11.7,85.1,0,0,0,0,0,0,1004.8,1018.8
2024-04-08T04:28:00+09:00,0.6,���k��,1.4,��,11.4,84.8,0,0,0,0,0,0,1004.8,1018.9
2024-04-08T04:29:00+09:00,0.7,���k��,1.4,��,11.5,85.8,0,0,0,0,0,0,1004.8,1018.9
2024-04-08T04:30:00+09:00,0.8,���k��,1.4,��,11.4,86,0,0,0,0,0,0,1004.8,1018.9
2024-04-08T04:31:00+09:00,0.8,���k��,1.4,��,11.5,86.3,0,0,0,0,0,0,1004.7,1018.8
2024-04-08T04:32:00+09:00,0.9,���k��,1.4,��,11.4,86.1,0,0,0,0,0,0,1004.7,1018.8
2024-04-08T04:33:00+09:00,0.9,��,1.4,��,11.2,86.4,0,0,0,0,0,0,1004.7,1018.8
2024-04-08T04:34:00+09:00,0.9,��,1.4,��,11.2,86.9,0,0,0,0,0,0,1004.8,1018.9
2024-04-08T04:35:00+09:00,0.9,��,1.4,��,11.3,87.5,0,0,0,0,0,0,1004.8,1018.9
2024-04-08T04:36:00+09:00,0.9,��,1.4,��,11.5,87.4,0,0,0,0,0,0,1004.8,1018.9
2024-04-08T04:37:00+09:00,0.8,��,1.2,���k��,11.5,87,0,0,0,0,0,0,1004.8,1018.9
2024-04-08T04:38:00+09:00,0.8,��,1.2,���k��,11.5,86.9,0,0,0,0,0,0,1004.7,1018.8
2024-04-08T04:39:00+09:00,0.8,��,1.2,���k��,11.6,86.8,0,0,0,0,0,0,1004.8,1018.9
2024-04-08T04:40:00+09:00,0.8,��,1.2,���k��,11.5,86.7,0,0,0,0,0,0,1004.8,1018.9
2024-04-08T04:41:00+09:00,0.8,��,1.2,���k��,11.5,86.8,0,0,0,0,0,0,1004.8,1018.9
2024-04-08T04:42:00+09:00,0.9,��,1.2,���k��,11.4,86.7,0,0,0,0,0,0,1004.8,1018.9
2024-04-08T04:43:00+09:00,0.9,��,1.2,���k��,11.5,87.2,0,0,0,0,0,0,1004.8,1018.9
2024-04-08T04:44:00+09:00,0.9,��,1.2,���k��,11.6,86.9,0,0,0,0,0,0,1004.8,1018.9
2024-04-08T04:45:00+09:00,0.9,��,1.2,���k��,11.6,86.8,0,0,0,0,0,0,1004.8,1018.9
2024-04-08T04:46:00+09:00,0.9,��,1.2,���k��,11.5,86.6,0,0,0,0,0,0,1004.9,1019
2024-04-08T04:47:00+09:00,0.8,��,1.2,��,11.6,86.5,0,0,0,0,0,0,1004.9,1019
2024-04-08T04:48:00+09:00,0.8,��,1.2,��,11.6,86.4,0,0,0,0,0,0,1004.9,1019
2024-04-08T04:49:00+09:00,0.7,��,1.2,��,11.5,85.9,0,0,0,0,0,0,1004.9,1019
2024-04-08T04:50:00+09:00,0.6,��,1.2,��,11.5,86.1,0,0,0,0,0,0,1004.8,1018.9
2024-04-08T04:51:00+09:00,0.6,��,1.2,��,11.4,86,0,0,0,0,0,0,1004.9,1019
2024-04-08T04:52:00+09:00,0.5,��,1,��,11.3,85.8,0,0,0,0,0,0,1004.9,1019
2024-04-08T04:53:00+09:00,0.5,��,0.9,��,11.6,86.7,0,0,0,0,0,0,1004.9,1019
2024-04-08T04:54:00+09:00,0.5,��,1,���k��,11.5,86.1,0,0,0,0,0,0,1004.8,1018.9
2024-04-08T04:55:00+09:00,0.4,��,1,���k��,11.6,86.3,0,0,0,0,0,0,1004.8,1018.9
2024-04-08T04:56:00+09:00,0.4,��,1,���k��,11.6,86.3,0,0,0,0,0,0,1004.8,1018.9